ANZ104 YBBN-NZAA

Flight info

Callsign ANZ104
Flight time N/A
Altitude 37000
Route SCOTT A464 RIGMI/N0477F390 A464 UPLAR
Aircraft B77W/H-SDE1E2E3FGHIJ2J3J4J5M1RWXY/LB1D1

Departure

Time 2026-05-04 05:47
Airport Brisbane International Airport (YBBN)

Arrival

Time N/A
Airport Auckland International Airport (NZAA)
Time Latitude Longitude Altitude Speed Heading
2026-05-04 05:17 -27.39808 153.11287 24 ft 0 kts 175°
2026-05-04 05:36 -27.39791 153.11286 26 ft 3 kts 175°
2026-05-04 05:36 -27.39772 153.11283 25 ft 3 kts 159°
2026-05-04 05:36 -27.39756 153.11272 25 ft 3 kts 122°
2026-05-04 05:37 -27.39750 153.11258 24 ft 0 kts 101°
2026-05-04 05:39 -27.39750 153.11260 23 ft 0 kts 101°
2026-05-04 05:40 -27.39753 153.11272 24 ft 0 kts 101°
2026-05-04 05:41 -27.39763 153.11379 23 ft 23 kts 97°
2026-05-04 05:41 -27.39801 153.11505 24 ft 0 kts 117°
2026-05-04 05:42 -27.39822 153.11551 27 ft 12 kts 117°
2026-05-04 05:42 -27.39865 153.11635 24 ft 12 kts 131°
2026-05-04 05:42 -27.39949 153.11647 23 ft 16 kts 202°
2026-05-04 05:42 -27.40077 153.11573 25 ft 25 kts 207°
2026-05-04 05:43 -27.40247 153.11543 25 ft 27 kts 138°
2026-05-04 05:43 -27.40301 153.11637 24 ft 0 kts 116°
2026-05-04 05:45 -27.40153 153.11897 22 ft 0 kts 27°
2026-05-04 05:47 -27.35554 153.15382 3099 ft 245 kts 64°
2026-05-04 05:47 -27.34808 153.17123 3732 ft 255 kts 64°
2026-05-04 05:47 -27.33958 153.18916 4532 ft 262 kts 62°
2026-05-04 05:48 -27.33053 153.20717 5407 ft 265 kts 61°
2026-05-04 05:48 -27.32133 153.22526 5969 ft 270 kts 63°
2026-05-04 05:48 -27.31585 153.24525 5991 ft 276 kts 90°
2026-05-04 05:48 -27.32051 153.26580 5995 ft 274 kts 120°
2026-05-04 05:49 -27.32829 153.27699 6007 ft 273 kts 135°
2026-05-04 05:49 -27.34282 153.29070 6001 ft 272 kts 140°
2026-05-04 05:49 -27.36241 153.30824 5983 ft 268 kts 138°
2026-05-04 05:49 -27.37125 153.31796 5994 ft 267 kts 131°
2026-05-04 05:51 -27.45724 153.43289 8935 ft 287 kts 130°
2026-05-04 05:51 -27.47035 153.45011 9734 ft 291 kts 130°
2026-05-04 05:52 -27.48357 153.46745 10383 ft 301 kts 130°
2026-05-04 05:52 -27.49767 153.48592 10946 ft 314 kts 130°
2026-05-04 05:52 -27.51188 153.50457 11679 ft 320 kts 130°
2026-05-04 05:52 -27.52672 153.52405 12547 ft 326 kts 130°
2026-05-04 05:53 -27.54203 153.54254 13314 ft 330 kts 141°
2026-05-04 05:54 -27.69159 153.63398 15997 ft 355 kts 153°
2026-05-04 05:55 -27.71336 153.64734 15986 ft 353 kts 153°
2026-05-04 05:55 -27.73495 153.66062 15998 ft 353 kts 153°
2026-05-04 05:55 -27.75643 153.67384 16006 ft 352 kts 153°
2026-05-04 05:55 -27.77733 153.68938 16006 ft 376 kts 139°
2026-05-04 05:56 -27.79621 153.71190 16018 ft 409 kts 131°
2026-05-04 05:56 -27.81531 153.73642 16016 ft 425 kts 133°
2026-05-04 05:56 -27.83537 153.76115 16012 ft 428 kts 134°
2026-05-04 05:56 -27.85587 153.78575 16012 ft 427 kts 134°
2026-05-04 05:57 -27.87469 153.81182 15981 ft 428 kts 121°
2026-05-04 05:57 -27.88772 153.84128 16007 ft 424 kts 114°
2026-05-04 05:57 -27.89964 153.87201 15998 ft 425 kts 113°
2026-05-04 05:57 -27.91138 153.90276 16004 ft 426 kts 113°
2026-05-04 05:58 -27.92324 153.93348 16004 ft 427 kts 113°
2026-05-04 05:58 -27.93532 153.96431 16006 ft 428 kts 114°
2026-05-04 05:58 -27.94762 153.99521 15999 ft 429 kts 114°
2026-05-04 05:58 -27.95977 154.02542 16001 ft 429 kts 114°
2026-05-04 05:59 -27.97225 154.05628 16000 ft 429 kts 114°
2026-05-04 05:59 -27.98470 154.08698 16003 ft 429 kts 114°
2026-05-04 05:59 -27.99717 154.11769 16002 ft 428 kts 114°
2026-05-04 05:59 -28.00953 154.14816 16007 ft 429 kts 114°
2026-05-04 06:00 -28.02211 154.17917 16547 ft 436 kts 114°
2026-05-04 06:00 -28.03469 154.21024 17406 ft 439 kts 114°
2026-05-04 06:00 -28.04756 154.24205 18215 ft 445 kts 115°
2026-05-04 06:00 -28.06003 154.27291 18846 ft 451 kts 115°
2026-05-04 06:01 -28.07317 154.30545 19491 ft 458 kts 115°
2026-05-04 06:01 -28.08652 154.33855 20173 ft 463 kts 115°
2026-05-04 06:03 -28.18370 154.58026 24518 ft 500 kts 115°
2026-05-04 06:03 -28.19808 154.61616 25019 ft 505 kts 115°
2026-05-04 06:05 -28.30292 154.87886 28330 ft 540 kts 116°
2026-05-04 06:05 -28.33401 154.95711 29185 ft 549 kts 116°
2026-05-04 06:05 -28.34999 154.99741 29587 ft 553 kts 116°
2026-05-04 06:06 -28.36567 155.03696 30001 ft 557 kts 116°
2026-05-04 06:06 -28.38156 155.07713 30455 ft 558 kts 116°
2026-05-04 06:06 -28.39730 155.11695 30927 ft 558 kts 116°
2026-05-04 06:06 -28.41302 155.15675 31379 ft 558 kts 116°
2026-05-04 06:07 -28.42893 155.19708 31829 ft 559 kts 116°
2026-05-04 06:07 -28.44488 155.23755 32255 ft 560 kts 117°
2026-05-04 06:07 -28.46071 155.27774 32681 ft 561 kts 117°
2026-05-04 06:07 -28.47667 155.31831 33101 ft 561 kts 117°
2026-05-04 06:08 -28.49267 155.35903 33521 ft 562 kts 117°
2026-05-04 06:08 -28.50850 155.39936 33939 ft 563 kts 117°
2026-05-04 06:08 -28.52452 155.44021 34304 ft 563 kts 117°
2026-05-04 06:08 -28.54051 155.48104 34683 ft 563 kts 117°
2026-05-04 06:09 -28.55627 155.52132 35078 ft 562 kts 117°
2026-05-04 06:09 -28.57220 155.56210 35471 ft 562 kts 117°
2026-05-04 06:11 -28.68283 155.84628 36994 ft 562 kts 117°
2026-05-04 06:13 -28.80755 156.16928 37004 ft 557 kts 117°
2026-05-04 06:14 -28.91643 156.45349 37010 ft 559 kts 117°
2026-05-04 06:15 -28.94729 156.53439 37012 ft 559 kts 117°
2026-05-04 06:15 -28.97835 156.61598 37011 ft 558 kts 117°
2026-05-04 06:16 -29.00993 156.69665 37009 ft 555 kts 121°
2026-05-04 06:16 -29.04894 156.77181 37013 ft 550 kts 128°
2026-05-04 06:17 -29.09018 156.84583 37007 ft 549 kts 128°
2026-05-04 06:17 -29.13083 156.91930 37025 ft 549 kts 127°
2026-05-04 06:18 -29.17139 156.99361 37016 ft 549 kts 127°
2026-05-04 06:20 -29.33214 157.29069 37026 ft 549 kts 127°
2026-05-04 06:21 -29.43229 157.47669 37031 ft 548 kts 127°
2026-05-04 06:22 -29.47233 157.55129 37040 ft 548 kts 127°
2026-05-04 06:25 -29.74980 158.07211 37032 ft 545 kts 127°
2026-05-04 06:26 -29.77957 158.12840 37030 ft 545 kts 127°
2026-05-04 06:26 -29.78471 158.13813 37031 ft 545 kts 127°